EDT,Max TemperatureF,Mean TemperatureF,Min TemperatureF,Max Dew PointF,MeanDew PointF,Min DewpointF,Max Humidity, Mean Humidity, Min Humidity, Max Sea Level PressureIn, Mean Sea Level PressureIn, Min Sea Level PressureIn, Max VisibilityMiles, Mean VisibilityMiles, Min VisibilityMiles, Max Wind SpeedMPH, Mean Wind SpeedMPH, Max Gust SpeedMPH,PrecipitationIn, CloudCover, Events, WindDirDegrees
2014-8-1,77,73,69,72,70,68,94,87,83,30.25,30.23,30.20,10,10,10,14,5,,0.00,2,,187
2014-8-2,68,65,62,66,63,61,100,95,94,30.22,30.17,30.12,7,3,2,12,7,,0.00,8,Rain,69
2014-8-3,69,68,66,66,64,63,88,88,88,30.13,30.10,30.06,10,9,5,5,5,,0.00,7,Rain,-1
2014-8-4,75,70,66,70,69,66,100,88,83,30.08,30.07,30.05,10,10,7,14,6,24,0.00,3,,220
2014-8-5,80,74,68,73,70,68,100,88,70,30.05,30.03,29.95,10,7,0,12,3,,0.00,2,Fog,191
2014-8-6,80,72,64,66,64,63,94,69,54,29.88,29.85,29.83,10,10,10,12,4,,0.00,0,,312
2014-8-7,78,72,66,61,59,55,83,60,50,29.93,29.92,29.89,10,10,10,12,5,,0.00,0,,321
2014-8-8,78,72,66,61,59,57,83,62,47,30.08,30.05,30.03,10,10,10,14,5,,0.00,0,,293
2014-8-9,82,75,68,64,62,57,88,60,42,30.11,30.08,30.06,10,10,10,10,5,,0.00,0,,257
2014-8-10,80,74,68,64,63,59,83,60,48,30.15,30.13,30.11,10,10,10,5,4,,0.00,0,,-1
2014-8-11,77,70,64,70,67,63,100,84,69,30.18,30.17,30.15,10,10,10,12,4,,0.00,0,,185
2014-8-12,77,73,69,72,68,66,89,83,73,30.11,30.07,30.02,10,10,10,20,8,,0.00,4,,143
2014-8-13,77,74,71,72,70,66,94,87,78,29.78,29.70,29.65,10,8,5,17,15,26,0.00,7,,188
2014-8-14,73,70,66,59,56,54,78,62,50,29.88,29.85,29.82,10,10,10,14,8,,0.00,1,,296
2014-8-15,69,64,60,59,56,54,88,69,56,29.94,29.93,29.91,10,10,10,12,5,,0.00,3,,287
2014-8-16,73,68,64,63,58,54,83,65,50,30.03,30.02,29.98,10,10,10,16,8,,0.00,0,,242
2014-8-17,78,74,69,66,65,63,88,73,57,29.88,29.85,29.81,10,10,10,16,10,,0.00,5,,265
2014-8-18,75,68,62,59,58,57,82,65,53,29.89,29.86,29.84,10,10,10,14,9,,0.00,0,,306
2014-8-19,73,68,64,64,59,55,88,68,53,29.95,29.94,29.93,10,10,10,10,4,,0.00,0,,177
2014-8-20,75,67,59,64,62,57,100,78,61,30.07,30.02,30.00,10,10,8,12,4,,0.00,2,,155
2014-8-21,73,68,62,66,64,61,94,83,73,30.10,30.09,30.07,10,10,10,12,4,,0.00,3,,119
2014-8-22,69,68,66,64,64,63,94,83,78,30.08,30.07,30.05,10,10,10,10,7,,0.00,6,,63
2014-8-23,71,68,66,63,62,61,88,78,69,30.12,30.11,30.10,10,10,10,14,8,,0.00,7,,60
2014-8-24,71,68,64,61,58,57,83,68,60,30.15,30.15,30.14,10,10,10,12,5,,0.00,2,,109
2014-8-25,71,68,68,64,64,64,88,83,78,30.17,30.16,30.16,10,10,10,0,0,,0.00,0,,-1
2014-8-26,77,74,71,64,63,61,78,69,65,30.20,30.16,30.12,10,10,10,12,6,,0.00,0,,190
2014-8-27,80,76,73,70,68,64,88,77,65,30.07,30.00,29.93,10,10,10,14,12,24,0.00,0,,219
2014-8-28,80,72,66,64,62,57,88,67,45,29.87,29.86,29.85,10,10,10,10,7,,0.00,2,,350
2014-8-29,71,68,64,55,54,52,73,59,50,30.22,30.19,30.12,10,10,10,16,7,,0.00,0,,160
2014-8-30,73,66,60,63,61,59,94,74,69,30.32,30.28,30.22,10,10,10,12,7,,0.00,2,,198
2014-8-31,77,74,71,73,72,70,94,91,83,30.15,30.09,30.02,10,9,5,18,12,,0.00,8,,221